Location: ??????????
(54.8537°N, 38.8755°E)
Time: 02:12:40
(UTC+00:00)

Vanguard 2 Rocket - Pass Details

Date: 15 September 2024
Orbit: 553 x 3298 km, 32.9° (Epoch: 10 October)

Event Time Altitude Azimuth Distance (km) Brightness Sun altitude
Rises 02:46:38 0° 256° (WSW) 5,773 - -2.4°
Exits shadow 02:47:27 - 254° (WSW) 5,632 10.2 -2.3°
Reaches altitude 10° 02:50:44 10° 246° (WSW) 5,133 10.1 -1.8°
Maximum altitude 03:03:20 29° 195° (SSW) 4,510 10.3 0.0°
Drops below altitude 10° 03:18:39 10° 145° (SE) 6,242 11.7 2.2°
Sets 03:24:24 0° 136° (SE) 7,179 12.2 3.0°
